Hourly Data Report for October 05, 2012

All times are specified in Local Standard Time (LST). Add 1 hour to adjust for Daylight Saving Time where and when it is observed.

ST LEONARD CS
NEW BRUNSWICK

47°09'28.050" N
67°49'55.014" W
245.00 m
810I001
71019
WIY

Download Data

Hourly Data (October 2012)
Hourly Data Report for October 5, 2012
Temp Definition
°C
Dew Point Temp Definition
°C
Rel Hum Definition
%
Wind Dir Definition
10's deg

Wind Spd Definition
km/h
Visibility Definition
km
Stn Press Definition
kPa
Hmdx Definition


Wind Chill Definition


Weather Definition


TIME
00:00 10.3 9.6 95 14 9   98.69     LegendNANA
01:00 10.1 9.3 95 14 9   98.63     LegendNANA
02:00 10.1 9.5 96 17 11   98.64     LegendNANA
03:00 10.2 9.7 97 15 7   98.56     LegendNANA
04:00 10.2 9.6 96 16 9   98.54     LegendNANA
05:00 10.2 9.6 96 16 7   98.47     LegendNANA
06:00 10.3 9.7 96 17 9   98.44     LegendNANA
07:00 10.9 9.7 92 17 11   98.39     LegendNANA
08:00 10.3 9.8 97 17 7   98.43     LegendNANA
09:00 10.5 10.1 97 16 7   98.38     LegendNANA
10:00 10.9 10.5 97 17 7   98.37     LegendNANA
11:00 11.3 10.8 97 17 7   98.32     LegendNANA
12:00 11.8 11.2 96 17 6   98.31     LegendNANA
13:00 12.5 11.9 96 18 7   98.29     LegendNANA
14:00 13.3 12.5 95 17 6   98.26     LegendNANA
15:00 14.7 13.3 91 18 9   98.20     LegendNANA
16:00 15.3 13.3 88 15 6   98.16     LegendNANA
17:00 15.4 13.6 89 16 6   98.15     LegendNANA
18:00 14.4 13.2 92 15 11   98.13     LegendNANA
19:00 13.7 12.7 94 15 9   98.15     LegendNANA
20:00 13.7 12.9 95 15 7   98.14     LegendNANA
21:00 13.8 13.0 95 15 7   98.12     LegendNANA
22:00 14.2 13.2 94 16 9   98.10     LegendNANA
23:00 14.1 13.3 95 17 7   98.08     LegendNANA

Notes on Data Quality.

Legend

  • E = Estimated
  • M = Missing
  • NA = Not Available
  • ‡ = Partner data that is not subject to review by the National Climate Archives
Date modified: